| time (UTC) | temp F | wind direction | speed MPH | gust MPH | rain 1hr in | rain 24hr in | rain mn in | humidity % | barometer mb |
| 20260503225019 | 57 | 26 | 0.0 | 2.0 | 0.00 | 0.00 | 0.00 | 52 | 1016.6 |
| 20260503224019 | 58 | 45 | 1.0 | 7.0 | 0.00 | 0.00 | 0.00 | 51 | 1016.7 |
| 20260503223016 | 58 | 80 | 1.0 | 4.0 | 0.00 | 0.00 | 0.00 | 52 | 1016.7 |
| 20260503222016 | 58 | 54 | 1.0 | 5.0 | 0.00 | 0.00 | 0.00 | 51 | 1016.7 |
| 20260503221017 | 58 | 49 | 1.0 | 5.0 | 0.00 | 0.00 | 0.00 | 50 | 1016.7 |
| 20260503220016 | 58 | 32 | 1.0 | 6.0 | 0.00 | 0.00 | 0.00 | 50 | 1016.7 |
| 20260503215016 | 59 | 50 | 2.0 | 6.0 | 0.00 | 0.00 | 0.00 | 49 | 1016.9 |
| 20260503214036 | 59 | 55 | 1.0 | 4.0 | 0.00 | 0.00 | 0.00 | 49 | 1016.9 |
| 20260503213016 | 60 | 359 | 1.0 | 5.0 | 0.00 | 0.00 | 0.00 | 47 | 1017.0 |
| 20260503212017 | 60 | 18 | 1.0 | 3.0 | 0.00 | 0.00 | 0.00 | 47 | 1017.1 |
| 20260503211017 | 60 | 137 | 2.0 | 5.0 | 0.00 | 0.00 | 0.00 | 46 | 1017.1 |
| 20260503210017 | 60 | 125 | 1.0 | 2.0 | 0.00 | 0.00 | 0.00 | 47 | 1017.2 |
| 20260503205018 | 61 | 359 | 1.0 | 3.0 | 0.00 | 0.00 | 0.00 | 46 | 1017.5 |
| 20260503204017 | 61 | 59 | 1.0 | 3.0 | 0.00 | 0.00 | 0.00 | 45 | 1017.5 |
| 20260503203018 | 62 | 139 | 2.0 | 4.0 | 0.00 | 0.00 | 0.00 | 44 | 1016.9 |
| 20260503202038 | 62 | 59 | 1.0 | 4.0 | 0.00 | 0.00 | 0.00 | 43 | 1017.1 |
| 20260503201018 | 62 | 22 | 1.0 | 5.0 | 0.00 | 0.00 | 0.00 | 43 | 1017.2 |
| 20260503200038 | 62 | 81 | 1.0 | 4.0 | 0.00 | 0.00 | 0.00 | 44 | 1017.3 |
| 20260503195018 | 62 | 41 | 1.0 | 4.0 | 0.00 | 0.00 | 0.00 | 44 | 1017.5 |
| 20260503194020 | 62 | 49 | 1.0 | 4.0 | 0.00 | 0.00 | 0.00 | 44 | 1017.5 |
| 20260503193017 | 61 | 34 | 2.0 | 5.0 | 0.00 | 0.00 | 0.00 | 45 | 1017.7 |
| 20260503192015 | 61 | 5 | 2.0 | 5.0 | 0.00 | 0.00 | 0.00 | 45 | 1017.8 |
| 20260503191016 | 62 | 22 | 2.0 | 5.0 | 0.00 | 0.00 | 0.00 | 46 | 1017.9 |
| 20260503190016 | 62 | 29 | 2.0 | 5.0 | 0.00 | 0.00 | 0.00 | 45 | 1017.9 |
| 20260503185038 | 61 | 122 | 2.0 | 7.0 | 0.00 | 0.00 | 0.00 | 45 | 1017.9 |
| 20260503184016 | 61 | 89 | 2.0 | 4.0 | 0.00 | 0.00 | 0.00 | 46 | 1018.2 |
| 20260503183021 | 61 | 143 | 1.0 | 4.0 | 0.00 | 0.00 | 0.00 | 43 | 1018.1 |
| 20260503182017 | 61 | 223 | 2.0 | 6.0 | 0.00 | 0.00 | 0.00 | 44 | 1018.2 |
| 20260503181017 | 61 | 69 | 2.0 | 5.0 | 0.00 | 0.00 | 0.00 | 44 | 1018.3 |
| 20260503180038 | 61 | 54 | 1.0 | 5.0 | 0.00 | 0.00 | 0.00 | 45 | 1018.2 |
| 20260503175016 | 61 | 68 | 1.0 | 4.0 | 0.00 | 0.00 | 0.00 | 43 | 1018.2 |
| 20260503174036 | 60 | 128 | 2.0 | 6.0 | 0.00 | 0.00 | 0.00 | 45 | 1018.3 |
| 20260503173018 | 60 | 35 | 2.0 | 5.0 | 0.00 | 0.00 | 0.00 | 45 | 1018.5 |
| 20260503172018 | 60 | 26 | 1.0 | 4.0 | 0.00 | 0.00 | 0.00 | 45 | 1018.6 |
| 20260503171017 | 59 | 19 | 2.0 | 6.0 | 0.00 | 0.00 | 0.00 | 47 | 1018.8 |
| 20260503131017 | 50 | 21 | 1.0 | 5.0 | 0.00 | 0.00 | 0.00 | 58 | 1018.5 |
| 20260503081029 | 42 | 0.0 | 0.0 | 0.00 | 0.00 | 0.00 | 71 | 1016.7 | |
| 20260503080107 | 42 | 68 | 0.0 | 2.0 | 0.00 | 0.00 | 0.00 | 72 | 1016.7 |
| 20260503072028 | 43 | 53 | 0.0 | 3.0 | 0.00 | 0.00 | 0.00 | 71 | 1016.3 |
| 20260503071028 | 43 | 31 | 1.0 | 2.0 | 0.00 | 0.00 | 0.00 | 70 | 1016.2 |
| 20260503055049 | 44 | 164 | 1.0 | 2.0 | 0.00 | 0.00 | 0.00 | 66 | 1016.1 |
| 20260503054029 | 44 | 146 | 2.0 | 4.0 | 0.00 | 0.00 | 0.00 | 66 | 1016.0 |
| 20260503053030 | 45 | 146 | 1.0 | 2.0 | 0.00 | 0.00 | 0.00 | 65 | 1016.3 |
| 20260503052051 | 45 | 176 | 1.0 | 3.0 | 0.00 | 0.00 | 0.00 | 62 | 1016.3 |
| 20260503051111 | 45 | 190 | 1.0 | 4.0 | 0.00 | 0.00 | 0.00 | 63 | 1016.2 |
| 20260503050030 | 45 | 174 | 1.0 | 4.0 | 0.00 | 0.00 | 0.00 | 63 | 1016.2 |
| 20260503045030 | 45 | 190 | 1.0 | 4.0 | 0.00 | 0.00 | 0.00 | 63 | 1016.3 |
| 20260503044030 | 45 | 203 | 0.0 | 3.0 | 0.00 | 0.00 | 0.00 | 64 | 1016.3 |
| 20260503043030 | 45 | 213 | 1.0 | 3.0 | 0.00 | 0.00 | 0.00 | 64 | 1016.3 |
| 20260503042017 | 45 | 145 | 0.0 | 2.0 | 0.00 | 0.00 | 0.00 | 61 | 1016.3 |
| 20260503041037 | 46 | 182 | 1.0 | 3.0 | 0.00 | 0.00 | 0.00 | 60 | 1016.3 |
| 20260503040016 | 46 | 136 | 0.0 | 2.0 | 0.00 | 0.00 | 0.00 | 60 | 1016.1 |
| 20260503035016 | 46 | 175 | 1.0 | 3.0 | 0.00 | 0.00 | 0.00 | 59 | 1016.0 |
| 20260503034058 | 46 | 175 | 1.0 | 6.0 | 0.00 | 0.00 | 0.00 | 59 | 1015.8 |
| 20260503033018 | 46 | 37 | 1.0 | 3.0 | 0.00 | 0.00 | 0.00 | 59 | 1015.7 |
| 20260503032018 | 46 | 168 | 0.0 | 3.0 | 0.00 | 0.00 | 0.00 | 60 | 1015.8 |
| 20260503031016 | 47 | 89 | 0.0 | 5.0 | 0.00 | 0.00 | 0.00 | 61 | 1015.7 |
| 20260503030018 | 47 | 49 | 1.0 | 3.0 | 0.00 | 0.00 | 0.00 | 59 | 1015.7 |
| 20260503025017 | 47 | 43 | 2.0 | 4.0 | 0.00 | 0.00 | 0.00 | 58 | 1015.3 |
| 20260503024018 | 48 | 172 | 2.0 | 6.0 | 0.00 | 0.00 | 0.00 | 55 | 1014.9 |
| 20260503023038 | 48 | 121 | 2.0 | 5.0 | 0.00 | 0.00 | 0.00 | 55 | 1014.9 |
| 20260503022017 | 48 | 134 | 2.0 | 5.0 | 0.00 | 0.00 | 0.00 | 55 | 1014.8 |
| 20260503021018 | 48 | 134 | 2.0 | 5.0 | 0.00 | 0.00 | 0.00 | 55 | 1014.7 |
| 20260503020018 | 48 | 147 | 1.0 | 5.0 | 0.00 | 0.00 | 0.00 | 55 | 1014.7 |
| 20260503015018 | 48 | 147 | 2.0 | 6.0 | 0.00 | 0.00 | 0.00 | 54 | 1014.5 |
| 20260503014018 | 49 | 140 | 2.0 | 6.0 | 0.00 | 0.00 | 0.00 | 53 | 1014.1 |
| 20260503013018 | 49 | 160 | 2.0 | 4.0 | 0.00 | 0.00 | 0.00 | 53 | 1014.2 |
| 20260503012018 | 49 | 134 | 2.0 | 6.0 | 0.00 | 0.00 | 0.00 | 53 | 1014.0 |
| 20260503011019 | 49 | 139 | 3.0 | 7.0 | 0.00 | 0.00 | 0.00 | 52 | 1013.8 |
| 20260503010018 | 49 | 94 | 2.0 | 4.0 | 0.00 | 0.00 | 0.00 | 52 | 1013.8 |
| 20260503005016 | 50 | 153 | 1.0 | 7.0 | 0.00 | 0.00 | 0.00 | 51 | 1013.7 |
| 20260503004020 | 50 | 156 | 3.0 | 8.0 | 0.00 | 0.00 | 0.00 | 50 | 1013.5 |
| 20260503003017 | 50 | 108 | 1.0 | 4.0 | 0.00 | 0.00 | 0.00 | 50 | 1013.4 |
| 20260503002016 | 51 | 117 | 3.0 | 7.0 | 0.00 | 0.00 | 0.00 | 49 | 1013.2 |
| 20260503001016 | 51 | 132 | 2.0 | 4.0 | 0.00 | 0.00 | 0.00 | 49 | 1013.0 |
| 20260503000036 | 51 | 92 | 2.0 | 5.0 | 0.00 | 0.00 | 0.00 | 48 | 1012.9 |
| 20260502235018 | 51 | 122 | 2.0 | 8.0 | 0.00 | 0.00 | 0.00 | 47 | 1012.8 |
| 20260502234017 | 52 | 102 | 2.0 | 6.0 | 0.00 | 0.00 | 0.00 | 48 | 1012.7 |
| 20260502233017 | 52 | 106 | 2.0 | 5.0 | 0.00 | 0.00 | 0.00 | 48 | 1012.7 |
| 20260502232017 | 53 | 151 | 1.0 | 6.0 | 0.00 | 0.00 | 0.00 | 47 | 1012.5 |
| 20260502231059 | 53 | 127 | 2.0 | 6.0 | 0.00 | 0.00 | 0.00 | 48 | 1012.4 |
| 20260502230017 | 54 | 152 | 1.0 | 5.0 | 0.00 | 0.00 | 0.00 | 47 | 1012.2 |